�N����,����,�g�[���i�L�b�`���j���x,�g�[�����x,��g�[���i���ʏ��j���x,����
 2003/03/01, 0:00,15.7,43,10.5,10.8
 2003/03/01, 0:15,15.4,42,10.3,10.9
 2003/03/01, 0:30,15.1,41,10.2,10.9
 2003/03/01, 0:45,14.8,41,10,11
 2003/03/01, 1:00,14.6,41,9.9,11.1
 2003/03/01, 1:15,14.4,41,9.9,11.1
 2003/03/01, 1:30,14.2,41,9.9,11.2
 2003/03/01, 1:45,14,41,9.9,11.3
 2003/03/01, 2:00,13.8,41,9.9,11.3
 2003/03/01, 2:15,13.8,42,9.9,11.4
 2003/03/01, 2:30,13.5,42,10.1,11.5
 2003/03/01, 2:45,13.4,42,10.1,11.5
 2003/03/01, 3:00,13.2,43,10.1,11.6
 2003/03/01, 3:15,13.2,43,10.1,11.6
 2003/03/01, 3:30,13,44,10.1,11.7
 2003/03/01, 3:45,13,44,10.1,11.7
 2003/03/01, 4:00,13,44,10.1,11.8
 2003/03/01, 4:15,12.7,45,10.1,11.8
 2003/03/01, 4:30,12.7,45,10.1,11.9
 2003/03/01, 4:45,12.6,46,10.2,11.9
 2003/03/01, 5:00,12.6,46,10.1,11.9
 2003/03/01, 5:15,12.5,46,10.2,12
 2003/03/01, 5:30,12.4,47,10.2,12
 2003/03/01, 5:45,12.5,47,10.1,12
 2003/03/01, 6:00,12.3,47,10.1,12.1
 2003/03/01, 6:15,12.3,48,10.1,12.1
 2003/03/01, 6:30,12.3,49,10.1,10.2
 2003/03/01, 6:45,17.5,43,10.7,10.2
 2003/03/01, 7:00,17.5,44,10.7,10.3
 2003/03/01, 7:15,17.6,43,10.8,10.3
 2003/03/01, 7:30,17.8,44,10.8,9.7
 2003/03/01, 7:45,16.9,46,10.8,9.7
 2003/03/01, 8:00,16.8,47,10.9,9.7
 2003/03/01, 8:15,17.6,46,11.2,9.7
 2003/03/01, 8:30,18.3,44,11.2,9.8
 2003/03/01, 8:45,17.4,46,11.3,9.9
 2003/03/01, 9:00,17,47,11.3,9.9
 2003/03/01, 9:15,16.9,47,11.4,9.5
 2003/03/01, 9:30,16.2,49,11.7,9.5
 2003/03/01, 9:45,15.9,50,11.4,9.6
 2003/03/01,10:00,15.4,52,11.4,9.7
 2003/03/01,10:15,15.3,50,11.3,9.7
 2003/03/01,10:30,15.1,50,11.4,9.8
 2003/03/01,10:45,14.9,50,11.4,10
 2003/03/01,11:00,14.6,52,11.4,9.8
 2003/03/01,11:15,14.6,52,11.3,9.8
 2003/03/01,11:30,14.5,51,11.3,9.9
 2003/03/01,11:45,14.3,51,11.4,9.9
 2003/03/01,12:00,14.2,52,11.4,9.9
 2003/03/01,12:15,14.3,54,11.4,10
 2003/03/01,12:30,17.8,48,11.5,10
 2003/03/01,12:45,18,48,11.7,10.1
 2003/03/01,13:00,18.7,46,11.8,10.2
 2003/03/01,13:15,18.5,47,11.9,9.9
 2003/03/01,13:30,18.4,47,12.1,10
 2003/03/01,13:45,18.4,48,14.7,15
 2003/03/01,14:00,17,54,16.9,15.9
 2003/03/01,14:15,17.1,54,17.1,-9.9
 2003/03/01,14:30,-9.9,-9.9,-9.9,-9.9
 2003/03/01,14:45,-9.9,-9.9,-9.9,-9.9
 2003/03/01,15:00,-9.9,-9.9,-9.9,-9.9
 2003/03/01,15:15,20.2,46,12.1,10.5
 2003/03/01,15:30,20.2,45,11.6,10.6
 2003/03/01,15:45,20.5,45,11.8,10.7
 2003/03/01,16:00,19.8,44,11.8,10.8
 2003/03/01,16:15,18.7,46,11.8,10.9
 2003/03/01,16:30,18.2,47,11.8,11
 2003/03/01,16:45,17.9,48,11.7,10.5
 2003/03/01,17:00,17.8,48,11.9,10.6
 2003/03/01,17:15,17.4,49,12.2,10.7
 2003/03/01,17:30,17.4,50,13.3,10.7
 2003/03/01,17:45,17.5,50,13.2,10.8
 2003/03/01,18:00,17.7,51,13,10.9
 2003/03/01,18:15,17.8,51,13.1,11
 2003/03/01,18:30,17.8,51,13.3,11.1
 2003/03/01,18:45,18.1,53,13.5,11.2
 2003/03/01,19:00,18.2,53,13.3,11.2
 2003/03/01,19:15,18.4,52,13.6,11.3
 2003/03/01,19:30,18.3,52,12.8,11.4
 2003/03/01,19:45,18.4,51,12.5,11.5
 2003/03/01,20:00,18.2,51,12.3,11.6
 2003/03/01,20:15,18.2,51,12.2,11.7
 2003/03/01,20:30,18.2,51,12.2,11.8
 2003/03/01,20:45,18,51,12.5,11.5
 2003/03/01,21:00,18,51,12.3,11.6
 2003/03/01,21:15,18,51,12.4,11.6
 2003/03/01,21:30,18,51,12.4,11.7
 2003/03/01,21:45,17.9,51,12.2,11.8
 2003/03/01,22:00,18.1,51,12.3,11.9
 2003/03/01,22:15,18.3,51,12.2,11.9
 2003/03/01,22:30,18.2,51,12.2,12
 2003/03/01,22:45,18.4,50,12.1,12.1
 2003/03/01,23:00,18.3,50,11.9,12.1
 2003/03/01,23:15,18.4,50,11.9,12.2
 2003/03/01,23:30,17.9,50,11.6,11.3
 2003/03/01,23:45,17.5,50,11.2,11.3
 2003/03/02, 0:00,17.2,50,10.9,11.4
 2003/03/02, 0:15,16.9,50,10.8,11.5
 2003/03/02, 0:30,16.8,50,10.6,11.5
 2003/03/02, 0:45,16.4,50,10.3,11.6
 2003/03/02, 1:00,16.2,50,10.2,11.7
 2003/03/02, 1:15,16,50,10.1,11.7
 2003/03/02, 1:30,15.8,50,10.1,11.8
 2003/03/02, 1:45,15.7,50,10,11.9
 2003/03/02, 2:00,15.4,50,10,11.9
 2003/03/02, 2:15,15.3,50,9.8,12
 2003/03/02, 2:30,15.1,50,9.6,12.1
 2003/03/02, 2:45,15,50,9.5,12.1
 2003/03/02, 3:00,14.8,50,9.5,12.2
 2003/03/02, 3:15,14.6,50,9.4,12.2
 2003/03/02, 3:30,14.5,50,9.2,12.3
 2003/03/02, 3:45,14.3,51,9,12.3
 2003/03/02, 4:00,14.4,51,8.8,12.4
 2003/03/02, 4:15,14.3,51,8.5,12.4
 2003/03/02, 4:30,14,51,8.5,12.4
 2003/03/02, 4:45,13.9,51,8.2,10.6
 2003/03/02, 5:00,13.9,51,8.1,10.6
 2003/03/02, 5:15,14,51,8.2,10.7
 2003/03/02, 5:30,13.9,51,8.2,10.7
 2003/03/02, 5:45,13.8,51,8.1,10.8
 2003/03/02, 6:00,13.8,51,8,10.8
 2003/03/02, 6:15,14.8,51,8.2,10.9
 2003/03/02, 6:30,15.4,50,8.5,10.9
 2003/03/02, 6:45,15.7,49,8.9,11
 2003/03/02, 7:00,18.5,45,8.8,10
 2003/03/02, 7:15,21.5,42,9.1,10
 2003/03/02, 7:30,21.4,42,9.3,10.1
 2003/03/02, 7:45,21.4,41,9.6,10.2
 2003/03/02, 8:00,20.4,43,10.1,10.2
 2003/03/02, 8:15,19.8,42,9.8,10.3
 2003/03/02, 8:30,19,44,10.4,10.4
 2003/03/02, 8:45,18.5,45,10.9,9.7
 2003/03/02, 9:00,18.2,46,11.2,9.8
 2003/03/02, 9:15,17.8,46,11.5,9.8
 2003/03/02, 9:30,17.3,45,12,9.9
 2003/03/02, 9:45,16.7,43,12.2,10
 2003/03/02,10:00,16.5,41,12.2,10
 2003/03/02,10:15,16.3,46,12.5,9.8
 2003/03/02,10:30,16.3,47,12.6,9.8
 2003/03/02,10:45,16.2,48,12.7,9.8
 2003/03/02,11:00,16.2,47,13.1,9.9
 2003/03/02,11:15,16.2,47,13.5,10
 2003/03/02,11:30,16.1,47,13.7,10
 2003/03/02,11:45,16.1,46,13.9,10.1
 2003/03/02,12:00,16.2,47,14.2,10.2
 2003/03/02,12:15,18,43,14.7,10.3
 2003/03/02,12:30,18,44,15.1,10.4
 2003/03/02,12:45,18.6,43,15.4,10.5
 2003/03/02,13:00,18.7,43,16,10.6
 2003/03/02,13:15,18.9,43,16.5,10.7
 2003/03/02,13:30,19.1,43,17.1,10.7
 2003/03/02,13:45,18.5,46,17.6,10.8
 2003/03/02,14:00,18.2,47,17.9,10.9
 2003/03/02,14:15,18,48,18.5,11
 2003/03/02,14:30,18,48,18.7,11.1
 2003/03/02,14:45,17.9,48,19.2,11.2
 2003/03/02,15:00,18,48,19.2,11.3
 2003/03/02,15:15,18.1,47,19.3,11.1
 2003/03/02,15:30,18.3,47,19.3,11
 2003/03/02,15:45,18.3,46,19.6,11.1
 2003/03/02,16:00,18.3,47,19.1,11.2
 2003/03/02,16:15,18.4,47,19.9,11.3
 2003/03/02,16:30,18.3,47,19.2,11.4
 2003/03/02,16:45,18.3,46,19.9,11.6
 2003/03/02,17:00,18.2,47,20.3,11.7
 2003/03/02,17:15,18.1,46,18.5,11.8
 2003/03/02,17:30,17.8,47,16.9,11.9
 2003/03/02,17:45,17.8,47,15.6,12
 2003/03/02,18:00,17.5,47,14.5,12.2
 2003/03/02,18:15,17.3,48,14.6,12.3
 2003/03/02,18:30,17.3,47,13.6,12.4
 2003/03/02,18:45,17.1,47,13.3,12.5
 2003/03/02,19:00,16.8,46,13.1,12.6
 2003/03/02,19:15,16.7,46,12.6,12.7
 2003/03/02,19:30,17.1,48,12.3,12.8
 2003/03/02,19:45,17.1,48,12.1,12.8
 2003/03/02,20:00,17.2,48,11.7,12.9
 2003/03/02,20:15,17.2,49,13,13
 2003/03/02,20:30,17.2,49,11.4,13.1
 2003/03/02,20:45,17.4,49,11,12
 2003/03/02,21:00,17.3,50,10.8,11.9
 2003/03/02,21:15,17.3,49,10.6,12
 2003/03/02,21:30,17.6,49,10.5,12.1
 2003/03/02,21:45,17.6,49,10.5,12.2
 2003/03/02,22:00,17.5,49,10.5,12.2
 2003/03/02,22:15,17.6,49,10.4,12.3
 2003/03/02,22:30,17.6,48,10.2,12.4
 2003/03/02,22:45,17.6,48,10,12.5
 2003/03/02,23:00,17.6,48,9.8,12.5
 2003/03/02,23:15,17.6,48,9.6,12.6
 2003/03/02,23:30,17.8,48,9.5,12.7
 2003/03/02,23:45,17.5,47,9.4,12.7
 2003/03/03, 0:00,17,47,9.3,12.8
 2003/03/03, 0:15,16.5,48,9.2,11.5
 2003/03/03, 0:30,16.2,48,9,11.6
 2003/03/03, 0:45,16,48,9.2,11.6
 2003/03/03, 1:00,15.8,48,9.1,11.7
 2003/03/03, 1:15,15.6,48,9,11.7
 2003/03/03, 1:30,15.3,48,9.1,11.8
 2003/03/03, 1:45,15.1,48,9,11.9
 2003/03/03, 2:00,14.9,48,8.8,11.9
 2003/03/03, 2:15,14.7,48,8.5,12
 2003/03/03, 2:30,14.5,49,8.5,12
 2003/03/03, 2:45,14.4,49,8.5,12.1
 2003/03/03, 3:00,14.3,49,8.5,12.1
 2003/03/03, 3:15,14,49,8.6,12.2
 2003/03/03, 3:30,14,49,8.6,12.2
 2003/03/03, 3:45,13.8,49,8.6,12.2
 2003/03/03, 4:00,13.8,50,8.5,12.3
 2003/03/03, 4:15,13.7,50,8.5,12.3
 2003/03/03, 4:30,13.6,50,8.6,12.4
 2003/03/03, 4:45,13.5,50,8.5,12.4
 2003/03/03, 5:00,13.3,50,8.6,12.4
 2003/03/03, 5:15,13.3,50,8.4,12.5
 2003/03/03, 5:30,13.2,50,8.6,12.5
 2003/03/03, 5:45,13,50,8.5,12.5
 2003/03/03, 6:00,13,51,8.4,11
 2003/03/03, 6:15,13.9,52,8.5,10.6
 2003/03/03, 6:30,17.3,46,8.7,10.7
 2003/03/03, 6:45,18.4,45,9,10.7
 2003/03/03, 7:00,18.7,43,9.5,10.8
 2003/03/03, 7:15,18.6,44,10.1,10.8
 2003/03/03, 7:30,18.8,44,10.3,10.9
 2003/03/03, 7:45,18.4,44,10.7,10.4
 2003/03/03, 8:00,17.3,47,11,10.5
 2003/03/03, 8:15,17,48,11.3,10.5
 2003/03/03, 8:30,16.5,48,11.4,10.6
 2003/03/03, 8:45,16.5,49,11.6,10.7
 2003/03/03, 9:00,16.2,49,11.8,10.7
 2003/03/03, 9:15,16.1,50,12.1,10.8
 2003/03/03, 9:30,15.7,50,12.1,10.2
 2003/03/03, 9:45,15.2,50,11.8,10.3
 2003/03/03,10:00,15.1,51,11.7,10.3
 2003/03/03,10:15,14.8,52,11.3,10.4
 2003/03/03,10:30,14.7,52,11.1,10.5
 2003/03/03,10:45,14.7,57,11,10.5
 2003/03/03,11:00,14.6,56,11,10.6
 2003/03/03,11:15,14.5,55,11,10.7
 2003/03/03,11:30,14.5,55,11.1,10.7
 2003/03/03,11:45,14.4,56,11.2,10.2
 2003/03/03,12:00,14.4,56,11.3,10.2
 2003/03/03,12:15,14.5,58,11.5,10.2
 2003/03/03,12:30,15.6,57,11.7,10.3
 2003/03/03,12:45,15.8,57,12.4,10.4
 2003/03/03,13:00,15.4,58,13.2,10.5
 2003/03/03,13:15,15.3,58,13.4,10.5
 2003/03/03,13:30,15.2,59,13.4,10.6
 2003/03/03,13:45,15.2,59,13,10.5
 2003/03/03,14:00,15.2,59,12.5,10.6
 2003/03/03,14:15,15.2,58,12,10.6
 2003/03/03,14:30,15.1,58,11.9,10.7
 2003/03/03,14:45,15.1,57,12,10.8
 2003/03/03,15:00,15.1,58,12.4,10.8
 2003/03/03,15:15,15,58,12.6,10.9
 2003/03/03,15:30,15,58,12.4,11
 2003/03/03,15:45,15,57,12.2,11.1
 2003/03/03,16:00,14.8,58,12.2,10.6
 2003/03/03,16:15,14.8,57,12.1,10.7
 2003/03/03,16:30,15,59,12.2,10.8
 2003/03/03,16:45,15,58,12.2,10.8
 2003/03/03,17:00,14.9,58,12.2,10.9
 2003/03/03,17:15,15,57,11.9,11
 2003/03/03,17:30,14.9,58,11.6,11.1
 2003/03/03,17:45,14.9,57,11.5,11.1
 2003/03/03,18:00,14.7,56,11.3,11.2
 2003/03/03,18:15,14.8,55,11,11.3
 2003/03/03,18:30,14.7,56,10.5,11.4
 2003/03/03,18:45,14.7,55,10.8,11.4
 2003/03/03,19:00,14.8,57,10.4,11.5
 2003/03/03,19:15,15,60,10.6,11.6
 2003/03/03,19:30,15.2,61,10.9,11.6
 2003/03/03,19:45,15.4,61,10.4,11.7
 2003/03/03,20:00,15.4,59,9.9,11.8
 2003/03/03,20:15,15.2,56,9.7,11.8
 2003/03/03,20:30,16,53,9.4,11.9
 2003/03/03,20:45,16.1,52,9.2,12
 2003/03/03,21:00,17,48,9.1,12
 2003/03/03,21:15,16.5,50,9.5,12.1
 2003/03/03,21:30,16.5,49,9.4,12.1
 2003/03/03,21:45,17.8,44,12.5,12.2
 2003/03/03,22:00,17.8,44,8.6,12.2
 2003/03/03,22:15,17.4,45,7.5,12.3
 2003/03/03,22:30,16.9,46,7.2,12.3
 2003/03/03,22:45,16.7,47,7.1,12.4
 2003/03/03,23:00,16.6,48,6.8,12.4
 2003/03/03,23:15,16.5,46,6.7,12.5
 2003/03/03,23:30,15.6,45,6.4,12.5
 2003/03/03,23:45,15.2,45,6.3,10.8
 2003/03/04, 0:00,14.8,45,6,10.8
 2003/03/04, 0:15,14.3,45,5.8,10.9
 2003/03/04, 0:30,14,46,5.7,10.9
 2003/03/04, 0:45,13.7,46,5.4,11
 2003/03/04, 1:00,13.4,46,5.4,11
 2003/03/04, 1:15,13.2,46,5.3,11.1
 2003/03/04, 1:30,12.9,46,5.2,11.1
 2003/03/04, 1:45,12.7,46,5.2,11.2
 2003/03/04, 2:00,12.5,46,5.2,11.2
 2003/03/04, 2:15,12.3,46,5.2,11.3
 2003/03/04, 2:30,12.1,47,5,11.3
 2003/03/04, 2:45,12,47,4.8,11.3
 2003/03/04, 3:00,11.7,47,4.5,11.4
 2003/03/04, 3:15,11.5,47,4.4,11.4
 2003/03/04, 3:30,11.3,47,4.3,11.4
 2003/03/04, 3:45,11.2,47,4.2,11.4
 2003/03/04, 4:00,11.1,47,3.9,11.4
 2003/03/04, 4:15,10.9,47,3.9,11.5
 2003/03/04, 4:30,10.8,47,3.9,11.5
 2003/03/04, 4:45,10.6,47,3.6,11.5
 2003/03/04, 5:00,10.5,47,3.6,11.5
 2003/03/04, 5:15,10.3,47,3.4,11.5
 2003/03/04, 5:30,10.2,47,3.2,11.5
 2003/03/04, 5:45,10.1,47,3,11.5
 2003/03/04, 6:00,9.9,47,2.8,9.1
 2003/03/04, 6:15,12.5,47,2.8,8.8
 2003/03/04, 6:30,17.4,38,3.1,8
 2003/03/04, 6:45,17.5,39,3.7,8.1
 2003/03/04, 7:00,20,36,3.7,8.1
 2003/03/04, 7:15,20.3,34,4.2,8.2
 2003/03/04, 7:30,18.4,37,4.4,8.3
 2003/03/04, 7:45,17.4,39,4.7,8.3
 2003/03/04, 8:00,16.8,40,4.8,8.4
 2003/03/04, 8:15,16.3,41,5.6,8.5
 2003/03/04, 8:30,16.1,42,5.8,8.5
 2003/03/04, 8:45,16.1,43,5.8,8.6
 2003/03/04, 9:00,15.9,43,6.5,8.7
 2003/03/04, 9:15,15.6,43,7.1,8.7
 2003/03/04, 9:30,15.5,41,7.8,8.8
 2003/03/04, 9:45,14.7,42,7.8,8.9
 2003/03/04,10:00,14.3,43,8.4,7.8
 2003/03/04,10:15,14,41,8.9,7.9
 2003/03/04,10:30,13.7,39,8.7,8
 2003/03/04,10:45,13.3,39,9.1,8
 2003/03/04,11:00,13.1,41,9,8.1
 2003/03/04,11:15,13.2,44,8.8,8.2
 2003/03/04,11:30,13.1,46,9.2,8.2
 2003/03/04,11:45,13.2,46,10,8.3
 2003/03/04,12:00,13.2,46,10.3,8.4
 2003/03/04,12:15,17.3,43,11.2,8.5
 2003/03/04,12:30,18.4,40,11.7,8.5
 2003/03/04,12:45,17.7,41,12.4,8.6
 2003/03/04,13:00,18.8,40,12.7,8.7
 2003/03/04,13:15,17.3,40,12.4,8.3
 2003/03/04,13:30,16.3,41,12.7,8.4
 2003/03/04,13:45,15.8,41,11,8.5
 2003/03/04,14:00,15.5,42,12.5,8.5
 2003/03/04,14:15,15.1,43,12,8.6
 2003/03/04,14:30,14.8,41,10.2,8.7
 2003/03/04,14:45,14.6,41,8.8,8.8
 2003/03/04,15:00,14.4,42,12.4,8.4
 2003/03/04,15:15,14.4,42,12.7,8.5
 2003/03/04,15:30,14.1,42,11.9,8.6
 2003/03/04,15:45,14,43,12.1,8.6
 2003/03/04,16:00,13.9,42,11.1,8.7
 2003/03/04,16:15,13.7,43,10.4,8.8
 2003/03/04,16:30,13.7,43,9.3,8.9
 2003/03/04,16:45,13.5,42,8.9,9
 2003/03/04,17:00,13.3,42,8.4,9
 2003/03/04,17:15,13.3,42,7.8,9.1
 2003/03/04,17:30,13.2,43,7.1,9.2
 2003/03/04,17:45,13.1,44,6.8,9.2
 2003/03/04,18:00,13.9,47,6,9.3
 2003/03/04,18:15,14.5,45,5.8,9.4
 2003/03/04,18:30,15.1,45,6,9.5
 2003/03/04,18:45,16.9,49,6.6,9.5
 2003/03/04,19:00,16.5,42,6.6,9.6
 2003/03/04,19:15,16.4,42,6.2,9.7
 2003/03/04,19:30,16.5,42,6.1,9.8
 2003/03/04,19:45,16.8,45,7.1,9.8
 2003/03/04,20:00,18.1,41,6.8,9.9
 2003/03/04,20:15,18.6,39,6.5,10
 2003/03/04,20:30,18.7,39,6.2,10.1
 2003/03/04,20:45,19.3,37,6.3,10.2
 2003/03/04,21:00,19.3,36,6.1,10.3
 2003/03/04,21:15,19.3,37,5.9,10.4
 2003/03/04,21:30,19.5,36,6,10.5
 2003/03/04,21:45,20,36,5.9,10.6
 2003/03/04,22:00,20,35,6.1,10.6
 2003/03/04,22:15,20.2,35,6.5,10.7
 2003/03/04,22:30,18.8,37,9.9,10.8
 2003/03/04,22:45,18,38,5.6,10.9
 2003/03/04,23:00,17.5,38,5.7,11
 2003/03/04,23:15,17.2,40,5.2,11
 2003/03/04,23:30,16.9,40,5,11.1
 2003/03/04,23:45,16.8,40,5,11.2
 2003/03/05, 0:00,16.5,40,4.8,9.7
 2003/03/05, 0:15,15.9,39,4.4,9.7
 2003/03/05, 0:30,15.3,40,4.3,8.6
 2003/03/05, 0:45,14.7,40,4.2,8.5
 2003/03/05, 1:00,14.2,40,4.1,8.6
 2003/03/05, 1:15,13.8,40,3.9,8.6
 2003/03/05, 1:30,13.5,40,3.9,8.7
 2003/03/05, 1:45,13.1,40,3.8,8.8
 2003/03/05, 2:00,12.8,40,3.7,8.8
 2003/03/05, 2:15,12.5,41,3.7,8.9
 2003/03/05, 2:30,12.3,41,3.7,8.9
 2003/03/05, 2:45,12,41,3.6,9
 2003/03/05, 3:00,11.7,41,3.5,9
 2003/03/05, 3:15,11.5,41,3.4,9.1
 2003/03/05, 3:30,11.3,42,3.4,9.1
 2003/03/05, 3:45,11.1,42,3.4,9.2
 2003/03/05, 4:00,10.9,42,3.4,9.2
 2003/03/05, 4:15,10.7,42,3.3,9.2
 2003/03/05, 4:30,10.6,42,3.2,9.3
 2003/03/05, 4:45,10.4,42,3.1,9.3
 2003/03/05, 5:00,10.2,42,3.1,9.3
 2003/03/05, 5:15,10.1,43,3.1,9.3
 2003/03/05, 5:30,9.9,43,3,9.3
 2003/03/05, 5:45,9.9,43,2.9,9.4
 2003/03/05, 6:00,9.6,43,2.9,7.6
 2003/03/05, 6:15,9.6,44,2.8,7.6
 2003/03/05, 6:30,13.3,43,3,7.6
 2003/03/05, 6:45,18.3,35,3.9,7.6
 2003/03/05, 7:00,19.6,35,3.9,7.7
 2003/03/05, 7:15,20.4,33,4.3,7.7
 2003/03/05, 7:30,20.5,31,5,7.8
 2003/03/05, 7:45,17.4,37,5.3,7.9
 2003/03/05, 8:00,16.9,38,5.8,7.9
 2003/03/05, 8:15,16.8,39,6.6,7.7
 2003/03/05, 8:30,16.8,39,6.7,7.8
 2003/03/05, 8:45,16.8,40,7.1,7.9
 2003/03/05, 9:00,16.8,40,8.3,7.9
 2003/03/05, 9:15,16.6,40,8.3,8
 2003/03/05, 9:30,16.4,40,8.3,8.1
 2003/03/05, 9:45,15.3,37,8.3,8.2
 2003/03/05,10:00,15.6,38,8.8,8.3
 2003/03/05,10:15,14.7,38,9.1,8.3
 2003/03/05,10:30,14.1,35,9.4,8.4
 2003/03/05,10:45,13.8,37,9.6,8.5
 2003/03/05,11:00,13.7,39,10.1,8
 2003/03/05,11:15,13.4,39,10.4,8
 2003/03/05,11:30,13.4,39,10.5,8.1
 2003/03/05,11:45,13.3,39,10.4,8.2
 2003/03/05,12:00,13.2,39,10.8,8.3
 2003/03/05,12:15,15.4,43,11.7,8.3
 2003/03/05,12:30,16.3,41,12,8.4
 2003/03/05,12:45,16,42,12.4,8.5
 2003/03/05,13:00,16.4,40,12.5,8.6
 2003/03/05,13:15,15.7,40,12.7,8.7
 2003/03/05,13:30,15.1,40,12.2,8.8
 2003/03/05,13:45,14.5,36,11.9,8.8
 2003/03/05,14:00,14.4,38,12.2,8.9
 2003/03/05,14:15,14.2,38,12.2,9
 2003/03/05,14:30,14.1,39,12.1,9.1
 2003/03/05,14:45,14,39,11.6,9.1
 2003/03/05,15:00,13.7,39,11.7,9.2
 2003/03/05,15:15,13.7,39,11.2,9.3
 2003/03/05,15:30,13.6,40,10.7,8.6
 2003/03/05,15:45,13.7,42,10.1,8.6
 2003/03/05,16:00,13.5,41,9.9,8.7
 2003/03/05,16:15,13.5,41,9.6,8.4
 2003/03/05,16:30,13.3,41,9.4,7.9
 2003/03/05,16:45,13.2,40,9.1,8
 2003/03/05,17:00,13.2,40,8.8,8.1
 2003/03/05,17:15,13,42,8.4,8.2
 2003/03/05,17:30,12.9,41,8,8.3
 2003/03/05,17:45,12.9,41,7.7,8.3
 2003/03/05,18:00,12.6,41,7.5,8.4
 2003/03/05,18:15,12.6,42,7.3,8.5
 2003/03/05,18:30,12.5,41,7.1,8.5
 2003/03/05,18:45,14,42,6.9,8.6
 2003/03/05,19:00,17.1,39,6.8,8.7
 2003/03/05,19:15,19.6,35,6.5,8.8
 2003/03/05,19:30,20.1,33,6.4,8.8
 2003/03/05,19:45,20.4,33,6.8,8.9
 2003/03/05,20:00,19.4,34,8.1,9
 2003/03/05,20:15,20.4,34,7.9,9.1
 2003/03/05,20:30,19.8,33,8.2,9.1
 2003/03/05,20:45,17.3,37,8.1,9.2
 2003/03/05,21:00,16.4,37,7.9,9.3
 2003/03/05,21:15,15.7,38,7.3,9.3
 2003/03/05,21:30,15.2,38,7.1,9.4
 2003/03/05,21:45,14.7,39,6.8,9.2
 2003/03/05,22:00,14.4,39,6.8,9.2
 2003/03/05,22:15,15.9,43,7.2,8.5
 2003/03/05,22:30,16.1,42,7.4,8.5
 2003/03/05,22:45,16.4,40,9.7,8.6
 2003/03/05,23:00,16.1,41,6.7,8.7
 2003/03/05,23:15,16,41,6.1,8.7
 2003/03/05,23:30,15.4,40,6.1,8.8
 2003/03/05,23:45,14.9,40,5.9,8.8
 2003/03/06, 0:00,14.4,40,5.8,8.9
 2003/03/06, 0:15,14.1,41,5.5,9
 2003/03/06, 0:30,13.7,41,5.3,9
 2003/03/06, 0:45,13.4,41,5,9.1
 2003/03/06, 1:00,13.1,41,4.8,9.1
 2003/03/06, 1:15,12.8,41,4.8,9.2
 2003/03/06, 1:30,12.6,42,4.8,9.2
 2003/03/06, 1:45,12.3,42,4.8,9.3
 2003/03/06, 2:00,12.1,42,4.8,9.3
 2003/03/06, 2:15,11.9,42,4.8,9.4
 2003/03/06, 2:30,11.7,42,4.8,9.4
 2003/03/06, 2:45,11.5,42,4.8,9.4
 2003/03/06, 3:00,11.3,42,4.9,9.5
 2003/03/06, 3:15,11.1,42,4.9,9.5
 2003/03/06, 3:30,10.9,42,4.8,9.5
 2003/03/06, 3:45,10.8,42,4.8,9.5
 2003/03/06, 4:00,10.7,42,4.8,9.6
 2003/03/06, 4:15,10.5,42,4.8,9.6
 2003/03/06, 4:30,10.3,42,4.8,7.9
 2003/03/06, 4:45,10.3,43,4.8,8
 2003/03/06, 5:00,10.1,43,4.8,8
 2003/03/06, 5:15,10,43,4.8,8
 2003/03/06, 5:30,9.9,43,4.8,8.1
 2003/03/06, 5:45,9.9,43,4.8,8.1
 2003/03/06, 6:00,9.8,43,4.7,8.1
 2003/03/06, 6:15,11.4,47,4.6,7.1
 2003/03/06, 6:30,16.3,39,4.8,6.7
 2003/03/06, 6:45,18.1,36,5.3,6.8
 2003/03/06, 7:00,19.9,35,5.8,6.8
 2003/03/06, 7:15,20.2,34,6,6.9
 2003/03/06, 7:30,17.8,37,6.6,7
 2003/03/06, 7:45,16.5,39,6.8,7.1
 2003/03/06, 8:00,16.2,35,7.1,7.2
 2003/03/06, 8:15,16.4,38,7.7,7.2
 2003/03/06, 8:30,16.1,40,8.2,7.3
 2003/03/06, 8:45,16,39,9.1,7.5
 2003/03/06, 9:00,16,40,10.4,7.6
 2003/03/06, 9:15,15.1,40,9.7,7.6
 2003/03/06, 9:30,14.6,38,9.9,7.7
 2003/03/06, 9:45,14,36,10.1,7.8
 2003/03/06,10:00,13.7,38,10.4,7.9
 2003/03/06,10:15,13.4,38,10.9,7.9
 2003/03/06,10:30,13.1,37,11.1,8
 2003/03/06,10:45,12.9,37,11.2,8.1
 2003/03/06,11:00,12.7,37,11.3,8.1
 2003/03/06,11:15,12.6,38,11.4,8.2
 2003/03/06,11:30,12.4,39,11.4,8.1
 2003/03/06,11:45,12.3,39,11.4,8.2
 2003/03/06,12:00,12.2,40,11.6,8.3
 2003/03/06,12:15,12.1,40,11.6,8.3
 2003/03/06,12:30,12.1,41,11.6,8.4
 2003/03/06,12:45,12.1,43,11.5,8.5
 2003/03/06,13:00,12.1,43,11.4,8.2
 2003/03/06,13:15,12.3,46,11.4,8.2
 2003/03/06,13:30,12.3,45,11.4,8.3
 2003/03/06,13:45,12.3,45,11.4,8.4
 2003/03/06,14:00,12.4,48,11.5,8.4
 2003/03/06,14:15,12.4,48,11.6,8.5
 2003/03/06,14:30,12.5,49,11.8,8.6
 2003/03/06,14:45,12.6,49,11.9,8.7
 2003/03/06,15:00,12.6,49,11.9,8.8
 2003/03/06,15:15,12.7,49,11.9,8.8
 2003/03/06,15:30,12.7,49,12,8.9
 2003/03/06,15:45,12.7,50,12.4,9
 2003/03/06,16:00,12.9,50,12.3,9.1
 2003/03/06,16:15,13,51,12.1,9.2
 2003/03/06,16:30,13,51,11.6,9.2
 2003/03/06,16:45,13.2,51,11.1,9.3
 2003/03/06,17:00,13.2,51,10.9,9.4
 2003/03/06,17:15,13.2,51,10.5,9.5
 2003/03/06,17:30,13.2,52,10.3,9.5
 2003/03/06,17:45,13.3,52,10.1,9.6
 2003/03/06,18:00,13.2,52,10,9.7
 2003/03/06,18:15,13.2,52,9.9,9.7
 2003/03/06,18:30,13.3,52,10.2,9.2
 2003/03/06,18:45,16.9,47,10.9,9.2
 2003/03/06,19:00,17.4,46,10.9,9.3
 2003/03/06,19:15,17.5,47,12,9.4
 2003/03/06,19:30,17.4,50,11.8,9.4
 2003/03/06,19:45,17.7,50,11.5,9.5
 2003/03/06,20:00,17.7,50,11.7,9.6
 2003/03/06,20:15,17.5,49,11.3,9.7
 2003/03/06,20:30,17.6,48,11,9.7
 2003/03/06,20:45,17,48,10.9,9.8
 2003/03/06,21:00,16.3,49,11,9.9
 2003/03/06,21:15,16,49,10.9,10
 2003/03/06,21:30,15.7,49,10.8,10.1
 2003/03/06,21:45,15.4,50,10.8,10.1
 2003/03/06,22:00,15.3,50,10.7,10.2
 2003/03/06,22:15,15.1,50,10.7,10.3
 2003/03/06,22:30,15,54,10.6,10.4
 2003/03/06,22:45,14.9,50,10.6,10.5
 2003/03/06,23:00,14.8,51,10.6,10.6
 2003/03/06,23:15,15.1,53,10.6,10.6
 2003/03/06,23:30,15.8,52,11.3,10.7
 2003/03/06,23:45,16,53,11.4,10.8
 2003/03/07, 0:00,16.2,52,11.9,10.9
 2003/03/07, 0:15,16.4,52,12,11
 2003/03/07, 0:30,16.6,52,11,11.1
 2003/03/07, 0:45,16.2,52,11,11.2
 2003/03/07, 1:00,15.9,52,11.2,11.2
 2003/03/07, 1:15,15.7,52,10.9,11.3
 2003/03/07, 1:30,15.4,53,10.8,11.4
 2003/03/07, 1:45,15.3,53,10.7,11.5
 2003/03/07, 2:00,15.1,53,10.7,11.6
 2003/03/07, 2:15,14.9,53,10.7,11.6
 2003/03/07, 2:30,14.7,53,10.7,11.7
 2003/03/07, 2:45,14.6,54,10.8,11.8
 2003/03/07, 3:00,14.5,54,10.6,11.8
 2003/03/07, 3:15,14.4,53,10.6,10.5
 2003/03/07, 3:30,14.3,54,10.6,10.5
 2003/03/07, 3:45,14.2,54,10.5,10.6
 2003/03/07, 4:00,14.1,54,10.5,10.7
 2003/03/07, 4:15,14.1,54,10.5,10.7
 2003/03/07, 4:30,14,54,10.5,10.8
 2003/03/07, 4:45,13.9,54,10.4,10.9
 2003/03/07, 5:00,13.8,54,10.5,10.9
 2003/03/07, 5:15,13.8,55,10.4,11
 2003/03/07, 5:30,13.7,55,10.4,11.1
 2003/03/07, 5:45,13.7,55,10.4,11.2
 2003/03/07, 6:00,13.6,56,10.4,10.3
 2003/03/07, 6:15,14.8,58,10.4,10.1
 2003/03/07, 6:30,17.3,52,10.7,10.1
 2003/03/07, 6:45,18.5,49,11.1,10.2
 2003/03/07, 7:00,17.8,51,11.3,10.3
 2003/03/07, 7:15,18.5,50,11.2,10.4
 2003/03/07, 7:30,18.8,49,11.2,10.5
 2003/03/07, 7:45,18.3,51,11.3,10.5
 2003/03/07, 8:00,17.6,52,11.7,10.6
 2003/03/07, 8:15,17.5,53,11.5,10.7
 2003/03/07, 8:30,17.4,53,11.4,10.8
 2003/03/07, 8:45,17.4,53,11.4,10.9
 2003/03/07, 9:00,17.3,53,11.5,11
 2003/03/07, 9:15,17.3,54,11.7,10.8
 2003/03/07, 9:30,17.4,54,11.8,10.6
 2003/03/07, 9:45,17.3,54,11.9,10.7
 2003/03/07,10:00,16.9,54,12.1,10.8
 2003/03/07,10:15,16.6,55,12.1,10.9
 2003/03/07,10:30,16.5,56,12.2,11
 2003/03/07,10:45,16.4,55,12.3,11
 2003/03/07,11:00,16.3,55,12.4,10.5
 2003/03/07,11:15,16.1,55,12.5,10.6
 2003/03/07,11:30,16,56,12.8,10.7
 2003/03/07,11:45,16,59,13,10.7
 2003/03/07,12:00,16,62,13.4,10.8
 2003/03/07,12:15,16.9,62,14.2,10.9
 2003/03/07,12:30,17,60,14.6,11
 2003/03/07,12:45,17.1,59,14.5,11.1
 2003/03/07,13:00,17.3,59,14,11.2
 2003/03/07,13:15,17,59,14.5,11.2
 2003/03/07,13:30,16.9,59,14.8,11.3
 2003/03/07,13:45,16.8,59,14.6,11.4
 2003/03/07,14:00,16.6,59,15.2,11.5
 2003/03/07,14:15,16.6,59,15.5,11.6
 2003/03/07,14:30,16.5,59,16,11.7
 2003/03/07,14:45,16.6,58,16,11.8
 2003/03/07,15:00,16.4,59,15.9,11.8
 2003/03/07,15:15,16.4,58,16.3,11.9
 2003/03/07,15:30,16.6,59,17,11.3
 2003/03/07,15:45,16.8,59,16.3,11.4
 2003/03/07,16:00,16.8,58,15.6,11.5
 2003/03/07,16:15,16.7,58,14.9,11.5
 2003/03/07,16:30,16.6,58,14.4,11.6
 2003/03/07,16:45,16.5,58,14.1,11.7
 2003/03/07,17:00,17.7,58,13.7,11.8
 2003/03/07,17:15,18,55,13.2,11.9
 2003/03/07,17:30,18.1,54,12.8,11.9
 2003/03/07,17:45,18.4,52,12.5,12
 2003/03/07,18:00,18.4,52,12.4,11.5
 2003/03/07,18:15,18.5,52,12.7,11.5
 2003/03/07,18:30,18.6,51,12.5,11.6
 2003/03/07,18:45,18.9,50,12.7,11.7
 2003/03/07,19:00,18.9,51,12.5,11.8
 2003/03/07,19:15,18.9,51,12.3,11.8
 2003/03/07,19:30,19.2,50,12.1,11.9
 2003/03/07,19:45,19.4,51,11.7,12
 2003/03/07,20:00,19.6,49,11.7,12.1
 2003/03/07,20:15,19.6,49,11.6,12.2
 2003/03/07,20:30,20.1,47,11.4,12.3
 2003/03/07,20:45,19.7,48,11,12.4
 2003/03/07,21:00,18.8,47,10.9,12.4
 2003/03/07,21:15,18.4,47,10.6,12.5
 2003/03/07,21:30,17.9,47,10.5,12.6
 2003/03/07,21:45,17.5,47,10.3,12.7
 2003/03/07,22:00,17.2,48,10.1,12.7
 2003/03/07,22:15,16.9,48,9.9,12.8
 2003/03/07,22:30,16.7,48,9.6,11.5
 2003/03/07,22:45,16.4,48,9.4,11.5
 2003/03/07,23:00,16.2,47,9.1,11.6
 2003/03/07,23:15,16.3,48,9.3,11.7
 2003/03/07,23:30,16.4,50,9.5,11.7